sat.trackr.live / text

‹ back to catalog

STARLINK-5975

NORAD 57372 · 2023-099AW

PAYLOAD ACTIVE UNKNOWN

§ Identity

Operator
Country
US
Launch date
2023-07-16
Launch site
AFETR
Launch vehicle
Mass (kg)
RCS (m²)

Purposes: comms

External: N2YO · Heavens-Above · Gunter

§ Orbital elements

Epoch: 2026-09-20T22:04:13.859040Z

Period
94.27 min
Inclination
43.0027°
Eccentricity
0.0000508
Mean motion
15.27574676 rev/d
Perigee alt
482.7 km
Apogee alt
483.4 km
Semi-major
6,861.2 km
B*
2.5249e-5
RAAN
219.4110°
Arg perigee
266.0548°
Mean anomaly
94.0246°
Rev number
17,605

§ Raw data

STARLINK-59751 57372U 23099AW  26263.91960485  .00000433  00000+0  25249-4 0  99932 57372  43.0027 219.4110 0000508 266.0548  94.0246 15.27574676176058

JSON: /api/v1/satellites/57372 · /tle

For live sub-satellite position, see the globe view (requires WebGL).

§ Visibility from observer

Set your observer location to see the next 7 days of passes ≥ 10°. The values pass through the URL so the page stays shareable.

No JS? Fill the form by hand. The geolocation button needs JavaScript.